Fort Campbell, KY

10:26 AM CST on December 08, 2016 (GMT -0600)
Campbell Army Air Field

Weather History for KHOP - February, 2014

Change the Weather History Date:

Saturday, February 1, 2014

  Actual Average Record
Temperature  
Mean Temperature 54 °F -  
Max Temperature 64 °F 45 °F 68 °F (2012)
Min Temperature 45 °F 28 °F 14 °F (2013)
Degree Days  
Heating Degree Days 10    
Growing Degree Days 4 (Base 50)    
Moisture  
Dew Point 40 °F    
Average Humidity 58    
Maximum Humidity 88    
Minimum Humidity 30    
Precipitation  
Precipitation 0.00 in - - ()
Sea Level Pressure  
Sea Level Pressure 29.95 in    
Wind  
Wind Speed 9 mph (SSW)    
Max Wind Speed 18 mph    
Max Gust Speed 28 mph    
Visibility 10 miles    
Events      
Averages and records for this station are not official NWS values.
T = Trace of Precipitation, MM = Missing Value Source: NWS Daily Summary

Daily Weather History Graph

Daily Weather History Graph

Search for Another Location

Airport or City:

Trip Planner

Search our weather history database for the weather conditions in past years. The results will help you decide how hot, cold, wet, or windy it might be!

Date:

Astronomy

Feb. 01, 2014 Rise Set
Actual Time 6:51 AM CST 5:15 PM CST
Civil Twilight 6:24 AM CST 5:42 PM CST
Nautical Twilight 5:53 AM CST 6:13 PM CST
Astronomical Twilight 5:23 AM CST 6:44 PM CST
Moon 7:45 AM CST (2/1) 7:45 PM CST (2/1)
Length of Visible Light 11h 18m
Length of Day
10h 23m
Waxing Crescent, 5% of the Moon is Illuminated
Feb 1
Waxing Crescent
Feb 6
First Quarter
Feb 14
Full
Feb 22
Last Quarter
Mar 1
New

Hourly Weather History & Observations

Time (CST) Temp. Windchill Dew Point Humidity Pressure Visibility Wind Dir Wind Speed Gust Speed Precip Events Conditions
12:58 AM 45.5 °F 43.2 °F 30.7 °F 56% 30.01 in 10.0 mi SE 4.6 mph - N/A   Overcast
1:58 AM 48.2 °F - 31.3 °F 52% 30.00 in 10.0 mi SSE 8.1 mph - N/A   Overcast
2:58 AM 50.5 °F - 26.6 °F 39% 29.99 in 10.0 mi South 10.4 mph - N/A   Overcast
3:58 AM 51.4 °F - 25.5 °F 37% 29.99 in 10.0 mi South 11.5 mph - N/A   Overcast
4:58 AM 51.3 °F - 24.6 °F 35% 29.98 in 10.0 mi South 11.5 mph - N/A   Overcast
5:58 AM 51.1 °F - 23.9 °F 35% 29.99 in 10.0 mi South 8.1 mph - N/A   Overcast
6:58 AM 50.5 °F - 21.2 °F 32% 30.00 in 10.0 mi South 9.2 mph 17.3 mph N/A   Overcast
7:58 AM 50.0 °F - 19.9 °F 31% 29.99 in 10.0 mi South 12.7 mph - N/A   Overcast
8:58 AM 52.3 °F - 21.4 °F 30% 30.00 in 10.0 mi South 13.8 mph 24.2 mph N/A   Overcast
9:58 AM 54.9 °F - 23.5 °F 30% 30.01 in 10.0 mi SSW 11.5 mph 19.6 mph N/A   Overcast
10:58 AM 55.8 °F - 28.4 °F 35% 29.99 in 10.0 mi South 11.5 mph 23.0 mph N/A   Overcast
11:58 AM 58.8 °F - 35.1 °F 41% 29.96 in 10.0 mi South 18.4 mph 25.3 mph N/A   Overcast
12:58 PM 61.2 °F - 40.5 °F 47% 29.92 in 10.0 mi South 16.1 mph 23.0 mph N/A   Overcast
1:58 PM 63.9 °F - 43.9 °F 48% 29.89 in 10.0 mi South 18.4 mph 25.3 mph N/A   Scattered Clouds
2:58 PM 64.6 °F - 45.7 °F 50% 29.88 in 10.0 mi SSW 11.5 mph 21.9 mph N/A   Clear
3:58 PM 64.9 °F - 46.6 °F 51% 29.88 in 10.0 mi SSW 17.3 mph 27.6 mph N/A   Clear
4:58 PM 63.3 °F - 47.1 °F 56% 29.89 in 10.0 mi South 11.5 mph - N/A   Scattered Clouds
5:58 PM 61.5 °F - 47.8 °F 61% 29.89 in 10.0 mi South 11.5 mph - N/A   Overcast
6:58 PM 60.4 °F - 47.7 °F 63% 29.91 in 10.0 mi South 8.1 mph - N/A   Mostly Cloudy
7:58 PM 59.5 °F - 47.1 °F 63% 29.94 in 10.0 mi SSW 6.9 mph - N/A   Overcast
8:58 PM 59.0 °F - 46.8 °F 64% 29.94 in 10.0 mi South 6.9 mph - N/A   Overcast
9:58 PM 58.5 °F - 46.8 °F 65% 29.94 in 10.0 mi SSW 5.8 mph - N/A   Overcast
10:18 PM 57.2 °F - 48.2 °F 72% 29.93 in 10.0 mi SSW 5.8 mph - N/A   Overcast
10:22 PM 57.2 °F - 48.2 °F 72% 29.93 in 10.0 mi SSW 5.8 mph - N/A   Overcast
10:23 PM 57.2 °F - 48.2 °F 72% 29.93 in 10.0 mi SSW 5.8 mph - N/A   Overcast
10:27 PM 57.2 °F - 48.2 °F 72% 29.93 in 10.0 mi SSW 5.8 mph - N/A   Light Drizzle
10:31 PM 57.2 °F - 48.2 °F 72% 29.93 in 9.0 mi SW 5.8 mph - N/A   Light Drizzle
10:41 PM 55.4 °F - 50.0 °F 82% 29.93 in 10.0 mi SW 3.5 mph - N/A   Overcast
10:57 PM 55.4 °F - 50.0 °F 82% 29.93 in 10.0 mi SSW 3.5 mph - N/A   Overcast
10:58 PM 55.0 °F - 50.2 °F 84% 29.94 in 10.0 mi South 3.5 mph - 0.00 in   Overcast
11:33 PM 55.4 °F - 50.0 °F 82% 29.92 in 10.0 mi SSW 8.1 mph - N/A   Overcast
11:45 PM 55.4 °F - 50.0 °F 82% 29.92 in 10.0 mi SSW 6.9 mph - N/A   Overcast
11:51 PM 55.4 °F - 51.8 °F 88% 29.92 in 10.0 mi SSW 9.2 mph - N/A   Overcast
11:58 PM 56.1 °F - 51.1 °F 83% 29.93 in 10.0 mi SSW 8.1 mph - N/A   Overcast